Weather reports worldwide

Advertisment
Kirkenes, Norway (1089): temperature & dewpoint: 28.06.2020 17:00:00 - 04.07.2020 17:00:00 (CEST)Kirkenes, Norway (1089): wind speed & gusts: 28.06.2020 17:00:00 - 04.07.2020 17:00:00 (CEST)Kirkenes, Norway (1089): wind direction: 28.06.2020 17:00:00 - 04.07.2020 17:00:00 (CEST)Kirkenes, Norway (1089): reduced air pressure: 28.06.2020 17:00:00 - 04.07.2020 17:00:00 (CEST)Kirkenes, Norway (1089): visibility: 28.06.2020 17:00:00 - 04.07.2020 17:00:00 (CEST)
Date & Time tt [°C] td [°C] ff [km/h] ff [kn] fx [km/h] fx [kn] dd ppp [hPa] vv [km]
04.07.2020 17:00:00 14,9 7,0 21 11 40 22 S 1000,5 10
04.07.2020 16:00:00 14,9 7,5 24 13 40 22 SW 1000,6 10
04.07.2020 15:00:00 13,6 7,6 22 12 48 26 SSW 1000,8 10
04.07.2020 14:00:00 14,0 8,8 21 11 35 19 S 1000,4 10
04.07.2020 13:00:00 14,2 6,6 21 11 38 21 S 1000,5 10
04.07.2020 12:00:00 14,6 5,7 21 11 42 23 S 1000,2 10
04.07.2020 11:00:00 14,1 4,7 21 11 35 19 S 1000,4 10
04.07.2020 10:00:00 14,5 7,1 18 10 - - S 1000,4 10
04.07.2020 09:00:00 14,2 7,0 16 9 31 17 S 1000,4 10
04.07.2020 08:00:00 12,8 9,3 18 10 27 15 S 1000,6 10
04.07.2020 07:00:00 10,6 10,0 8 4 15 8 S 1000,8 10
04.07.2020 06:00:00 10,1 9,5 5 3 8 5 SE 1000,8 10
04.07.2020 05:00:00 9,5 8,9 8 4 10 5 ENE 1001,3 8
04.07.2020 04:00:00 9,2 8,6 0 0 10 5 N 1001,5 9
04.07.2020 03:00:00 9,0 8,4 5 3 17 9 N 1001,8 7
04.07.2020 02:00:00 9,1 8,0 11 6 18 10 NE 1002,2 10
04.07.2020 01:00:00 9,5 7,8 11 6 16 9 NNE 1002,5 10
04.07.2020 00:00:00 10,4 7,6 9 5 11 6 N 1002,9 10
03.07.2020 23:00:00 10,9 7,2 5 3 16 9 - 1003,0 10
03.07.2020 22:00:00 11,7 6,6 11 6 19 10 N 1003,5 10
03.07.2020 21:00:00 12,7 6,5 11 6 16 9 N 1003,9 10
03.07.2020 20:00:00 13,7 5,9 9 5 16 9 NNE 1004,0 10
03.07.2020 19:00:00 13,6 5,5 5 3 13 7 - 1004,4 10
03.07.2020 18:00:00 14,1 4,4 8 4 13 7 ENE 1004,8 10
03.07.2020 17:00:00 15,2 2,7 18 10 23 13 ENE 1004,9 10
03.07.2020 16:00:00 15,3 3,5 24 13 29 15 E 1005,0 10
03.07.2020 15:00:00 15,8 3,9 21 11 23 13 ENE 1004,7 10
03.07.2020 14:00:00 17,6 2,0 9 5 22 12 N 1004,6 10
03.07.2020 13:00:00 16,3 0,5 11 6 23 12 W 1004,8 10
03.07.2020 12:00:00 15,8 1,5 16 9 26 14 WSW 1004,8 10
03.07.2020 11:00:00 15,6 2,1 16 9 29 16 SW 1004,7 10
03.07.2020 10:00:00 14,8 2,0 24 13 35 19 SW 1004,6 10
03.07.2020 09:00:00 14,2 1,8 18 10 32 17 WSW 1004,4 10
03.07.2020 08:00:00 13,3 2,5 18 10 29 16 SW 1004,3 10
03.07.2020 07:00:00 12,5 3,5 18 10 26 14 SSW 1004,2 10
03.07.2020 06:00:00 11,3 3,8 13 7 19 11 SSE 1003,9 10
03.07.2020 05:00:00 10,0 4,4 9 5 19 10 S 1003,9 10
03.07.2020 04:00:00 8,7 4,0 11 6 16 8 S 1003,6 10
03.07.2020 03:00:00 7,5 3,9 11 6 16 9 S 1003,4 10
03.07.2020 02:00:00 7,4 3,1 9 5 14 7 SW 1003,0 10
03.07.2020 01:00:00 7,7 2,8 8 4 13 7 SW 1002,6 10
03.07.2020 00:00:00 8,4 3,5 11 6 19 10 WSW 1002,1 10
02.07.2020 23:00:00 9,4 4,2 8 4 18 10 WSW 1001,3 10
02.07.2020 22:00:00 10,4 3,7 13 7 24 13 W 1000,6 10
02.07.2020 21:00:00 11,8 5,0 15 8 24 13 W 999,7 10
02.07.2020 20:00:00 11,8 5,7 11 6 26 14 WSW 998,8 10
02.07.2020 19:00:00 11,9 6,0 16 9 29 15 WNW 998,2 10
02.07.2020 18:00:00 12,3 4,8 24 13 37 20 WSW 997,4 10
02.07.2020 17:00:00 12,5 4,5 25 14 36 19 SW 996,5 10
02.07.2020 16:00:00 12,6 4,3 28 15 45 24 WSW 995,7 10
02.07.2020 15:00:00 12,9 4,6 31 17 44 24 WSW 994,8 10
02.07.2020 14:00:00 13,0 4,7 29 16 47 26 SW 993,9 10
02.07.2020 13:00:00 13,0 5,0 31 17 48 26 WSW 993,2 10
02.07.2020 12:00:00 11,9 5,1 31 17 48 26 SW 992,6 10
02.07.2020 11:00:00 10,8 5,4 31 17 46 25 SW 991,8 10
02.07.2020 10:00:00 10,7 5,3 24 13 39 21 SW 990,8 10
02.07.2020 09:00:00 9,8 5,4 22 12 45 24 WSW 989,9 10
02.07.2020 08:00:00 9,0 6,8 24 13 42 23 SW 989,3 10
02.07.2020 07:00:00 9,0 6,3 26 14 43 23 SW 988,3 10
02.07.2020 06:00:00 8,6 6,2 26 14 44 24 SW 987,7 10
02.07.2020 05:00:00 8,3 6,4 24 13 41 22 WSW 987,1 10
02.07.2020 04:00:00 8,4 6,0 26 14 39 21 SW 986,5 10
02.07.2020 03:00:00 8,4 6,9 22 12 43 23 SW 985,9 10
02.07.2020 02:00:00 8,3 7,4 17 9 34 19 SW 985,2 -
02.07.2020 01:00:00 8,6 6,9 21 11 35 19 WSW 984,4 10
02.07.2020 00:00:00 8,9 7,5 22 12 39 21 WSW 983,3 10
01.07.2020 23:00:00 9,3 8,2 18 10 34 18 SW 982,5 10
01.07.2020 22:00:00 9,6 8,7 18 10 32 17 SW 981,3 10
01.07.2020 21:00:00 10,2 9,9 18 10 24 13 W 980,2 7
01.07.2020 20:00:00 10,3 10,2 11 6 14 8 WNW 979,5 2,5
01.07.2020 19:00:00 10,3 10,2 11 6 16 9 NNW 978,9 5
01.07.2020 18:00:00 10,2 9,7 8 4 20 11 N 978,9 5
01.07.2020 17:00:00 10,9 10,4 21 11 27 15 NNE 978,9 4,4
01.07.2020 16:00:00 12,2 10,6 22 12 28 15 E 979,2 10
01.07.2020 15:00:00 12,6 11,0 13 7 23 12 ENE 979,7 10
01.07.2020 14:00:00 12,0 10,4 16 9 18 10 ENE 980,3 10
01.07.2020 13:00:00 11,3 10,5 22 12 26 14 ENE 981,0 10
01.07.2020 12:00:00 10,2 9,7 22 12 26 14 E 981,6 6
01.07.2020 11:00:00 10,5 9,9 18 10 25 14 E 982,1 10
01.07.2020 10:00:00 10,7 10,1 22 12 31 17 ENE 982,4 10
01.07.2020 09:00:00 9,7 9,2 24 13 29 16 ENE 983,1 9
01.07.2020 08:00:00 9,0 8,9 26 14 30 16 NE 984,2 9
01.07.2020 07:00:00 8,2 8,0 22 12 29 16 NE 985,3 8
01.07.2020 06:00:00 7,2 7,0 16 9 30 16 NNE 986,4 1,0
01.07.2020 05:00:00 6,7 6,5 22 12 30 16 NNE 987,4 0,3
01.07.2020 04:00:00 6,6 6,5 21 11 31 17 NE 988,4 1,1
01.07.2020 03:00:00 6,4 6,2 18 10 31 17 NNE 989,3 0,2
01.07.2020 02:00:00 6,2 6,0 19 11 35 19 N 990,1 -
01.07.2020 01:00:00 6,1 6,0 18 10 36 19 NE 990,9 0,1
01.07.2020 00:00:00 6,0 5,9 24 13 39 21 NNE 991,5 0,2
30.06.2020 23:00:00 5,8 5,7 24 13 40 22 NNE 991,9 0,1
30.06.2020 22:00:00 5,9 5,8 28 15 37 20 NNE 992,2 0,1
30.06.2020 21:00:00 6,1 6,0 24 13 39 21 NNE 992,4 0,1
30.06.2020 20:00:00 6,1 6,0 26 14 39 21 NNE 992,5 4,0
30.06.2020 19:00:00 6,2 6,0 24 13 36 20 NNE 992,8 10
30.06.2020 18:00:00 6,4 6,1 21 11 35 19 NE 993,1 10
30.06.2020 17:00:00 6,3 6,0 18 10 32 17 NNE 993,4 6
30.06.2020 16:00:00 6,2 5,9 26 14 37 20 NE 993,6 5
30.06.2020 15:00:00 6,2 5,9 21 11 36 20 NE 993,9 9
30.06.2020 14:00:00 6,3 5,7 21 11 33 18 NE 994,1 7
30.06.2020 13:00:00 6,2 5,5 24 13 40 21 ENE 994,4 10
30.06.2020 12:00:00 6,1 5,2 31 17 45 24 ENE 994,6 10
30.06.2020 11:00:00 5,9 5,0 31 17 43 23 ENE 995,3 10
30.06.2020 10:00:00 5,7 4,8 37 20 48 26 ENE 995,6 10
30.06.2020 09:00:00 5,5 4,6 34 18 49 26 ENE 996,4 10
30.06.2020 08:00:00 5,2 4,2 26 14 44 24 ENE 997,4 10
30.06.2020 07:00:00 5,0 3,8 29 16 42 23 ENE 998,9 10
30.06.2020 06:00:00 5,0 4,0 31 17 42 23 ENE 999,6 10
30.06.2020 05:00:00 5,0 3,5 28 15 36 20 ENE 1000,7 10
30.06.2020 04:00:00 4,6 3,3 24 13 - - ENE 1001,6 10
30.06.2020 03:00:00 4,7 3,0 22 12 31 17 E 1002,5 8
30.06.2020 02:00:00 5,1 2,5 18 10 29 16 NE 1003,7 0,5
30.06.2020 01:00:00 5,1 2,0 18 10 33 18 E 1004,4 10
30.06.2020 00:00:00 5,1 1,4 22 12 - - E 1005,6 10
29.06.2020 23:00:00 5,2 1,9 21 11 35 19 E 1006,2 10
29.06.2020 22:00:00 5,2 2,4 24 13 35 19 E 1007,5 10
29.06.2020 21:00:00 5,3 2,7 24 13 34 19 ENE 1007,7 10
29.06.2020 20:00:00 5,6 2,4 22 12 29 15 ENE 1008,8 10
29.06.2020 19:00:00 6,0 2,5 22 12 30 16 ENE 1009,3 10
29.06.2020 18:00:00 6,2 2,5 24 13 31 17 ENE 1010,0 10
29.06.2020 17:00:00 6,0 3,3 22 12 31 17 ENE 1010,8 10
29.06.2020 16:00:00 6,2 3,0 24 13 29 16 ENE 1011,3 10
29.06.2020 15:00:00 5,8 3,0 22 12 29 16 ENE 1011,9 10
29.06.2020 14:00:00 6,6 1,9 22 12 31 17 ENE 1012,1 10
29.06.2020 13:00:00 7,6 1,7 22 12 31 17 ENE 1012,3 10
29.06.2020 12:00:00 7,8 1,9 18 10 29 16 ENE 1013,0 10
29.06.2020 11:00:00 7,4 1,3 22 12 29 15 ENE 1013,5 10
29.06.2020 10:00:00 7,0 0,7 18 10 26 14 E 1013,7 10
29.06.2020 09:00:00 6,7 1,4 21 11 27 14 E 1014,0 10
29.06.2020 08:00:00 6,1 2,0 22 12 29 16 E 1014,0 10
29.06.2020 07:00:00 6,0 3,3 22 12 29 16 ENE 1014,2 10
29.06.2020 06:00:00 5,8 4,1 16 9 24 13 E 1014,8 10
29.06.2020 05:00:00 6,0 3,5 18 10 23 12 ENE 1015,2 10
29.06.2020 04:00:00 6,1 3,3 16 9 25 13 E 1015,6 10
29.06.2020 03:00:00 6,1 2,9 16 9 23 12 ENE 1015,7 10
29.06.2020 02:00:00 6,1 3,1 18 10 23 12 ENE 1016,2 10
29.06.2020 01:00:00 6,1 3,9 16 9 23 12 ENE 1016,2 10
29.06.2020 00:00:00 6,1 4,3 18 10 24 13 ENE 1016,6 10
28.06.2020 23:00:00 6,1 4,4 21 11 25 14 ENE 1016,6 10
28.06.2020 22:00:00 6,6 4,4 22 12 29 16 ENE 1016,5 10
28.06.2020 21:00:00 7,8 4,9 16 9 23 12 ENE 1016,5 10
28.06.2020 20:00:00 9,4 5,2 15 8 21 11 E 1016,4 10
28.06.2020 19:00:00 11,3 5,2 8 4 15 8 ENE 1016,5 10
28.06.2020 18:00:00 11,6 5,0 4 2 16 8 - 1016,8 10
28.06.2020 17:00:00 11,3 4,1 5 3 14 8 - 1017,3 10

tt = temperature
td = dewpoint
ff = wind speed
fx = gusts
dd = wind direction
ppp = reduced air pressure
vv = visibility

Next stations